Location: Eyeline Observatory
(43.2182°N, 78.8632°W)
Time: 23:48:51
(UTC-05:00)

OTV 5 (USA 277) - Pass Details

Date: 14 October 2017
Orbit: 404 x 417 km, 43.0° (Epoch: 07 September)

Event Time Altitude Azimuth Distance (km) Brightness Sun altitude
Rises 19:32:20 0° 257° (WSW) 2,351 ? -11.4°
Reaches altitude 10° 19:34:27 10° 256° (WSW) 1,489 ? -11.8°
Maximum altitude 19:37:48 76° 171° (S) 432 ? -12.4°
Enters shadow 19:39:45 23° 87° (E) 930 ? -12.8°
